Regional Weather Roundup
Issued by NWS

Home | Current Version | Previous Version | Text Only | Print | Product List | Glossary Off
Versions: 1 2 3 4 5 6 7 8 9 10 11 12 13 14 15 16 17 18 19 20 21 22 23 24 25 26 27 28 29 30 31 32 33 34 35 36 37 38 39 40 41 42 43 44 45 46 47 48 49 50

000
ASUS45 KSLC 302310
RWRUT

UTAH REGIONAL WEATHER ROUNDUP
NATIONAL WEATHER SERVICE SALT LAKE CITY UT
500 PM MDT TUE SEP 30 2014

UTZ001>011-023>025-010000-

NORTHERN UTAH

CITY           SKY/WX    TMP DP  RH WIND       PRES   REMARKS
HILL AFB       CLOUDY    53  46  76 N7G17     29.95S
LOGAN          NOT AVBL
OGDEN          LGT RAIN  52  47  83 N14       29.94R
PROVO AIRPORT  PTSUNNY   61  45  55 NW5       29.93F
SALT LAKE CITY PTSUNNY   60  45  57 S6        29.92F
VERNAL         PTSUNNY   59  45  59 NE8       29.90F
WENDOVER       CLOUDY    59  43  55 NE5       29.93S
HEBER CITY     CLOUDY    52  41  66 E5        29.98F
WEST JORDAN    CLOUDY    57  45  62 CALM      29.95F

$$

UTZ012>022-026-027-010000-

SOUTHERN UTAH

CITY           SKY/WX    TMP DP  RH WIND       PRES   REMARKS
BRYCE CANYON   SUNNY     60  31  33 NW8G17    30.04F
CEDAR CITY     SUNNY     68  30  24 NE5       29.94F
MILFORD        SUNNY     68  35  29 S7        29.91F
MOAB/CYNLANDS  SUNNY     69  40  34 NW8       29.88F
PRICE          PTSUNNY   60  40  47 CALM      29.95S
ST GEORGE      MOCLDY    81  37  21 W13       29.84F
KANAB            N/A     72  32  23 SW12      29.95F

$$

REGIONAL REPORTS     COLORADO/ARIZONA

CITY           SKY/WX    TMP DP  RH WIND       PRES   REMARKS
CRAIG, CO      CLOUDY    50  43  77 SW7       29.96F
GRAND JUNCTION MOSUNNY   63  45  51 N9        29.91F
RIFLE          PTSUNNY   59  39  47 W18G24    29.92F
MONTROSE       MOSUNNY   59  42  53 N12       29.97S
CORTEZ         SUNNY     64  37  36 NW10      29.98F
PAGE, AZ       NOT AVBL
GRAND CANYON   SUNNY     66  36  32 SW9       30.03F
KINGMAN        SUNNY     80  34  19 SW9       29.88F
FLAGSTAFF      SUNNY     65  37  35 SW14      30.05F

$$

REGIONAL REPORTS    NEVADA/IDAHO/WYOMING

CITY           SKY/WX    TMP DP  RH WIND       PRES   REMARKS
LAS VEGAS, NV  MOSUNNY   86  35  16 E8        29.74F
ELY            MOSUNNY   65  30  27 W16G23    29.96F
ELKO           PTSUNNY   63  38  39 W10G17    29.95S
POCATELLO, ID  MOSUNNY   57  40  52 W29G35    29.90S
BURLEY         MOSUNNY   56  39  53 W20G29    29.92S
EVANSTON, WY   CLOUDY    48  39  71 W18       29.98F
ROCK SPRINGS   LGT RAIN  50  38  63 W22G30    29.92S

$$


USA.gov is the U.S. government's official web portal to all federal, state and local government web resources and services.